Retour au catalogue

COSMOS 394

ActifMilitaireVLEO
NORAD 4922·PAYLOAD·🇷🇺 Russia

Lancé Feb 9, 1971 depuis Plesetsk Cosmodrome

Loading…

Prochains Passages (prochaines 24 heures)

TLE

FraisSource: Space-Track

Époque: Sep 14, 2026, 11:56 UTC

1 04922U 71010A   26257.49760559  .00004291  00000-0  82317-4 0  9994
2 04922  65.8209 342.5066 0006446 231.2443 128.8132 15.49398594 71857

Suivez COSMOS 394 en temps réel avec AllMySat

Download on the App Store